This is the latest recevied weather packets stored in our database for station/object W0RMT-13. If no packets are shown the sender has not sent any weather packets the latest 10 day(s).
| Time | Temp. | Humidity | Pressure | Rain* | Wind** | Luminosity | Snow |
|---|---|---|---|---|---|---|---|
| 1778154068 | 5° C | 55% | 1014.7 hPa | 0 mm | - | 0 W/m² | - |
| 1778153412 | 3.33° C | 60% | 1014.2 hPa | 0 mm | - | 0 W/m² | - |
| 1778152730 | 3.33° C | 74% | 1014.7 hPa | 0 mm | - | 0 W/m² | - |
| 1778152066 | 3.33° C | 74% | 1014.7 hPa | 0 mm | - | 0 W/m² | - |
| 1778151454 | 3.89° C | 75% | 1014.7 hPa | 0 mm | - | 0 W/m² | - |
| 1778150798 | 4.44° C | 73% | 1014.7 hPa | 0 mm | - | 0 W/m² | - |
| 1778150175 | 5° C | 70% | 1014.7 hPa | 0 mm | - | 0 W/m² | - |
| 1778149554 | 5° C | 66% | 1014.7 hPa | 0 mm | - | 0 W/m² | - |
| 1778148934 | 4.44° C | 66% | 1014.7 hPa | 0 mm | - | 0 W/m² | - |
| 1778148232 | 3.33° C | 63% | 1015 hPa | 0 mm | - | 0 W/m² | - |
| 1778147545 | 3.33° C | 71% | 1015 hPa | 0 mm | - | 0 W/m² | - |
| 1778146855 | 3.33° C | 73% | 1015 hPa | 0 mm | - | 0 W/m² | - |
| 1778146174 | 3.33° C | 72% | 1015 hPa | 0 mm | - | 0 W/m² | - |
| 1778145520 | 2.78° C | 67% | 1015 hPa | 0 mm | - | 0 W/m² | - |
| 1778144834 | 1.67° C | 77% | 1015 hPa | 0 mm | - | 0 W/m² | - |
| 1778144194 | 1.11° C | 76% | 1015 hPa | 0 mm | - | 0 W/m² | - |
| 1778143592 | 0.56° C | 89% | 1015 hPa | 0 mm | - | 0 W/m² | - |
| 1778142967 | 0.56° C | 87% | 1015 hPa | 0 mm | - | 0 W/m² | - |
| 1778142346 | 0° C | 89% | 1015.4 hPa | 0 mm | - | 0 W/m² | - |
| 1778141633 | -0.56° C | 94% | 1015 hPa | 0 mm | - | 0 W/m² | - |
| 1778140953 | -0.56° C | 96% | 1015.4 hPa | 0 mm | - | 0 W/m² | - |
| 1778140309 | -0.56° C | 98% | 1015.4 hPa | 0 mm | - | 0 W/m² | - |
| 1778139758 | -0.56° C | 99% | 1015.8 hPa | 0 mm | - | 0 W/m² | - |
| 1778139083 | -0.56° C | 99% | 1015.8 hPa | 0 mm | - | 0 W/m² | - |
| 1778138404 | -0.56° C | 99% | 1015.8 hPa | 0 mm | - | 0 W/m² | - |
* Rain latest hour (hover to see other rain measurements)
** Current wind speed in m/s (hover to see current wind gust speed)